Weather History for Cape Girardeau, MO

Change the Weather History Date:

Monday, August 26, 2013

  Actual Average Record
Temperature  
Mean Temperature 79 °F 76 °F  
Max Temperature 89 °F 88 °F 98 °F (1983)
Min Temperature 68 °F 64 °F 52 °F (2010)
Degree Days  
Heating Degree Days 0 0  
Month to date heating degree days 1 0  
Since 1 June heating degree days 1 4  
Since 1 July heating degree days 1 0  
Cooling Degree Days 14 11  
Month to date cooling degree days 255 323  
Year to date cooling degree days 1099 1209  
Since 1 June cooling degree days 928 1057  
Growing Degree Days 28 (Base 50)    
Moisture  
Dew Point 70 °F    
Average Humidity 80    
Maximum Humidity 100    
Minimum Humidity 59    
Precipitation  
Precipitation 0.00 in 0.10 in 0.47 in (1971)
Month to date precipitation 3.53 2.51  
Year to date precipitation 28.23 30.54  
Sea Level Pressure  
Sea Level Pressure 30.21 in    
Wind  
Wind Speed 4 mph (SSW)    
Max Wind Speed 10 mph    
Max Gust Speed 15 mph    
Visibility 4 miles    
Events Fog    
T = Trace of Precipitation, MM = Missing Value Source: NWS Daily Summary

Daily Weather History Graph

Daily Weather History Graph

Search for Another Location

Airport:

Trip Planner

Search our weather history database for the weather conditions in past years. The results will help you decide how hot, cold, wet, or windy it might be!

Date:

Astronomy

Aug. 26, 2013 Rise Set
Actual Time 6:24 AM CDT 7:35 PM CDT
Civil Twilight 5:57 AM CDT 8:02 PM CDT
Nautical Twilight 5:24 AM CDT 8:34 PM CDT
Astronomical Twilight 4:51 AM CDT 9:07 PM CDT
Moon 10:55 PM CDT (8/26) 12:16 PM CDT (8/26)
Length of Visible Light 14h 04m
Length of Day
13h 11m
Waning Gibbous, 66% of the Moon is Illuminated
Aug 26
Waning Gibbous
Aug 28
Last Quarter
Sep 5
New
Sep 12
First Quarter
Sep 19
Full

Hourly Weather History & Observations

Time (CDT) Temp. Heat Index Dew Point Humidity Pressure Visibility Wind Dir Wind Speed Gust Speed Precip Events Conditions
12:53 AM 71.1 °F - 70.0 °F 96% 30.22 in 1.5 mi Calm Calm - N/A   Clear
1:02 AM 71.6 °F - 69.8 °F 94% 30.23 in 0.5 mi Calm Calm - N/A Fog Fog
1:13 AM 71.6 °F - 69.8 °F 94% 30.22 in 1.2 mi Calm Calm - N/A   Clear
1:22 AM 71.6 °F - 71.6 °F 100% 30.22 in 3.0 mi Calm Calm - N/A   Clear
1:26 AM 71.6 °F - 71.6 °F 100% 30.22 in 1.2 mi Calm Calm - N/A   Clear
1:32 AM 71.6 °F - 69.8 °F 94% 30.22 in 0.2 mi Calm Calm - N/A Fog Fog
1:53 AM 69.1 °F - 69.1 °F 100% 30.21 in 0.2 mi Calm Calm - N/A Fog Fog
2:17 AM 69.8 °F - 69.8 °F 100% 30.22 in 0.8 mi Calm Calm - N/A   Clear
2:20 AM 69.8 °F - 69.8 °F 100% 30.22 in 2.0 mi Calm Calm - N/A   Clear
2:27 AM 69.8 °F - 69.8 °F 100% 30.22 in 5.0 mi Calm Calm - N/A   Clear
2:53 AM 70.0 °F - 69.1 °F 97% 30.21 in 4.0 mi Calm Calm - N/A   Clear
3:03 AM 71.6 °F - 69.8 °F 94% 30.22 in 2.0 mi Calm Calm - N/A   Clear
3:10 AM 69.8 °F - 68.0 °F 94% 30.22 in 0.8 mi Calm Calm - N/A   Clear
3:29 AM 69.8 °F - 69.8 °F 100% 30.21 in 1.8 mi Calm Calm - N/A   Clear
3:36 AM 69.8 °F - 68.0 °F 94% 30.21 in 2.5 mi Calm Calm - N/A   Clear
3:53 AM 71.1 °F - 69.1 °F 93% 30.20 in 2.5 mi Calm Calm - N/A   Clear
4:22 AM 71.6 °F - 69.8 °F 94% 30.21 in 1.8 mi Calm Calm - N/A   Clear
4:36 AM 71.6 °F - 69.8 °F 94% 30.21 in 3.0 mi Calm Calm - N/A   Clear
4:48 AM 71.6 °F - 69.8 °F 94% 30.21 in 2.5 mi Calm Calm - N/A   Clear
4:53 AM 70.0 °F - 69.1 °F 97% 30.21 in 2.5 mi Calm Calm - N/A   Clear
5:00 AM 69.8 °F - 69.8 °F 100% 30.22 in 1.2 mi Calm Calm - N/A   Partly Cloudy
5:03 AM 69.8 °F - 69.8 °F 100% 30.22 in 0.8 mi Calm Calm - N/A   Mist
5:17 AM 69.8 °F - 69.8 °F 100% 30.22 in 1.2 mi Calm Calm - N/A   Partly Cloudy
5:26 AM 69.8 °F - 68.0 °F 94% 30.22 in 2.5 mi Calm Calm - N/A   Partly Cloudy
5:33 AM 69.8 °F - 69.8 °F 100% 30.22 in 1.0 mi Calm Calm - N/A   Mist
5:41 AM 68.0 °F - 68.0 °F 100% 30.22 in 0.5 mi Calm Calm - N/A Fog Fog
5:49 AM 69.8 °F - 68.0 °F 94% 30.22 in 0.2 mi Calm Calm - N/A Fog Fog
5:53 AM 68.0 °F - 66.9 °F 96% 30.22 in 0.2 mi Calm Calm - N/A Fog Fog
6:01 AM 69.8 °F - 68.0 °F 94% 30.23 in 0.8 mi Calm Calm - N/A   Mist
6:04 AM 69.8 °F - 68.0 °F 94% 30.22 in 1.2 mi Calm Calm - N/A   Partly Cloudy
6:21 AM 68.0 °F - 66.2 °F 94% 30.23 in 0.5 mi Calm Calm - N/A Fog Fog
6:28 AM 68.0 °F - 66.2 °F 94% 30.24 in 0.2 mi Calm Calm - N/A Fog Fog
6:53 AM 68.0 °F - 68.0 °F 100% 30.23 in 0.2 mi ESE 3.5 mph - N/A Fog Fog
7:08 AM 71.6 °F - 69.8 °F 94% 30.25 in 1.0 mi ESE 3.5 mph - N/A   Mist
7:16 AM 71.6 °F - 69.8 °F 94% 30.25 in 1.8 mi Calm Calm - N/A   Partly Cloudy
7:33 AM 73.4 °F - 71.6 °F 94% 30.25 in 2.0 mi Calm Calm - N/A   Clear
7:51 AM 73.4 °F - 71.6 °F 94% 30.25 in 3.0 mi Calm Calm - N/A   Clear
7:53 AM 73.9 °F - 72.0 °F 93% 30.24 in 4.0 mi South 3.5 mph - N/A   Clear
8:53 AM 78.1 °F - 73.0 °F 84% 30.25 in 6.0 mi SSW 4.6 mph - N/A   Haze
9:53 AM 81.0 °F 85.8 °F 73.0 °F 77% 30.25 in 7.0 mi West 6.9 mph - N/A   Clear
10:53 AM 82.9 °F 89.4 °F 73.9 °F 74% 30.24 in 9.0 mi SW 9.2 mph - N/A   Scattered Clouds
11:10 AM 82.4 °F 88.2 °F 73.4 °F 74% 30.24 in 10.0 mi WSW 6.9 mph - N/A   Mostly Cloudy
11:49 AM 84.2 °F 90.9 °F 73.4 °F 70% 30.24 in 10.0 mi SW 5.8 mph - N/A   Scattered Clouds
11:53 AM 84.9 °F 91.4 °F 73.0 °F 67% 30.23 in 10.0 mi SW 9.2 mph - N/A   Scattered Clouds
12:53 PM 82.9 °F 88.0 °F 72.0 °F 69% 30.20 in 10.0 mi WSW 5.8 mph - N/A   Clear
1:53 PM 87.1 °F 94.5 °F 73.0 °F 63% 30.19 in 10.0 mi SSW 4.6 mph - N/A   Partly Cloudy
2:53 PM 88.0 °F 95.6 °F 73.0 °F 61% 30.16 in 10.0 mi SSW 6.9 mph - N/A   Partly Cloudy
3:53 PM 88.0 °F 94.7 °F 72.0 °F 59% 30.14 in 10.0 mi SW 8.1 mph - N/A   Clear
4:53 PM 87.1 °F 93.6 °F 72.0 °F 61% 30.12 in 10.0 mi SSW 8.1 mph - N/A   Clear
5:53 PM 86.0 °F 93.0 °F 73.0 °F 65% 30.12 in 10.0 mi SSW 6.9 mph - N/A   Clear
6:53 PM 82.9 °F 88.8 °F 73.0 °F 72% 30.11 in 10.0 mi SSW 4.6 mph - N/A   Clear
7:53 PM 79.0 °F - 72.0 °F 79% 30.11 in 10.0 mi South 4.6 mph - N/A   Clear
8:53 PM 77.0 °F - 71.1 °F 82% 30.12 in 10.0 mi South 4.6 mph - N/A   Clear
9:53 PM 75.0 °F - 71.1 °F 87% 30.12 in 9.0 mi Calm Calm - N/A   Clear
10:53 PM 73.0 °F - 70.0 °F 90% 30.12 in 8.0 mi Calm Calm - N/A   Clear
11:53 PM 73.9 °F - 70.0 °F 87% 30.11 in 9.0 mi Calm Calm - N/A   Clear